LPA869 UHWW-UHHH

Flight info

Callsign LPA869
Flight time N/A
Altitude 35000
Route DOLMA2F DOLMA B356 TD B355 ARDEL ARDEL6F
Aircraft A20N/M-SDE2E3FGHIRWXY/LB1

Departure

Time 2026-04-20 19:54
Airport Vladivostok International Airport (UHWW)

Arrival

Time N/A
Airport Khabarovsk Novy Airport (UHHH)
Time Latitude Longitude Altitude Speed Heading
2026-04-20 18:38 43.40028 132.16792 31 ft 0 kts 151°
2026-04-20 19:39 43.40025 132.16794 32 ft 0 kts 151°
2026-04-20 19:40 43.40020 132.16798 32 ft 1 kts 151°
2026-04-20 19:40 43.40003 132.16811 32 ft 4 kts 151°
2026-04-20 19:40 43.39980 132.16841 33 ft 5 kts 104°
2026-04-20 19:40 43.40001 132.16904 31 ft 9 kts 58°
2026-04-20 19:41 43.40036 132.16988 28 ft 6 kts 61°
2026-04-20 19:41 43.40060 132.17049 27 ft 5 kts 61°
2026-04-20 19:41 43.40068 132.17067 27 ft 0 kts 56°
2026-04-20 19:42 43.40078 132.17082 27 ft 3 kts 41°
2026-04-20 19:42 43.40112 132.17090 26 ft 6 kts 342°
2026-04-20 19:43 43.40137 132.17075 26 ft 0 kts 332°
2026-04-20 19:44 43.40149 132.17065 25 ft 3 kts 331°
2026-04-20 19:44 43.40168 132.17050 25 ft 1 kts 331°
2026-04-20 19:44 43.40173 132.17047 25 ft 0 kts 331°
2026-04-20 19:45 43.40176 132.17044 25 ft 2 kts 331°
2026-04-20 19:45 43.40192 132.17032 25 ft 1 kts 331°
2026-04-20 19:45 43.40195 132.17030 25 ft 0 kts 331°
2026-04-20 19:45 43.40205 132.17023 24 ft 3 kts 331°
2026-04-20 19:46 43.40229 132.17004 24 ft 0 kts 331°
2026-04-20 19:47 43.40242 132.16995 24 ft 3 kts 330°
2026-04-20 19:48 43.40266 132.16977 24 ft 4 kts 330°
2026-04-20 19:48 43.40274 132.16969 24 ft 0 kts 330°
2026-04-20 19:49 43.40278 132.16966 24 ft 1 kts 330°
2026-04-20 19:49 43.40288 132.16960 24 ft 1 kts 330°
2026-04-20 19:49 43.40302 132.16948 24 ft 3 kts 330°
2026-04-20 19:49 43.40330 132.16927 23 ft 5 kts 331°
2026-04-20 19:50 43.40332 132.16925 23 ft 0 kts 331°
2026-04-20 19:51 43.40337 132.16922 24 ft 2 kts 331°
2026-04-20 19:52 43.40370 132.16898 23 ft 9 kts 332°
2026-04-20 19:52 43.40438 132.16843 23 ft 9 kts 311°
2026-04-20 19:52 43.40439 132.16805 24 ft 0 kts 242°
2026-04-20 19:53 43.40429 132.16779 24 ft 22 kts 242°
2026-04-20 19:53 43.40216 132.16252 33 ft 100 kts 241°
2026-04-20 19:53 43.39775 132.15158 61 ft 158 kts 241°
2026-04-20 19:54 43.39241 132.13809 691 ft 162 kts 242°
2026-04-20 19:54 43.38723 132.12494 1602 ft 157 kts 243°
2026-04-20 19:54 43.38212 132.11258 2438 ft 154 kts 243°
2026-04-20 19:54 43.37677 132.09918 2995 ft 167 kts 245°
2026-04-20 19:55 43.37100 132.08446 3410 ft 189 kts 244°
2026-04-20 19:55 43.36441 132.06770 3985 ft 208 kts 245°
2026-04-20 19:55 43.35735 132.04977 4573 ft 226 kts 245°
2026-04-20 19:55 43.34962 132.03012 4895 ft 240 kts 245°
2026-04-20 19:56 43.34417 132.01633 4947 ft 242 kts 245°
2026-04-20 19:56 43.33348 131.98932 4955 ft 241 kts 245°
2026-04-20 19:56 43.32560 131.96944 4942 ft 241 kts 245°
2026-04-20 19:56 43.31753 131.94908 4945 ft 241 kts 245°
2026-04-20 19:57 43.30967 131.92925 4948 ft 232 kts 245°
2026-04-20 19:57 43.30215 131.91038 4951 ft 216 kts 246°
2026-04-20 19:57 43.29517 131.89282 4950 ft 209 kts 245°
2026-04-20 19:57 43.28822 131.87529 4949 ft 209 kts 246°
2026-04-20 19:58 43.28128 131.85776 4945 ft 208 kts 246°
2026-04-20 19:58 43.27433 131.84023 4955 ft 209 kts 246°
2026-04-20 19:58 43.26733 131.82254 4956 ft 214 kts 246°
2026-04-20 19:58 43.25993 131.80373 4965 ft 236 kts 246°
2026-04-20 19:59 43.25206 131.78378 4955 ft 241 kts 245°
2026-04-20 19:59 43.24386 131.76306 5238 ft 250 kts 245°
2026-04-20 19:59 43.23560 131.74223 6092 ft 249 kts 246°
2026-04-20 19:59 43.22833 131.72113 6686 ft 246 kts 260°
2026-04-20 20:00 43.22875 131.69833 7648 ft 244 kts 289°
2026-04-20 20:00 43.23791 131.67946 8797 ft 245 kts 316°
2026-04-20 20:00 43.25337 131.66902 9708 ft 261 kts 341°
2026-04-20 20:00 43.27215 131.66957 10327 ft 292 kts
2026-04-20 20:01 43.29208 131.68001 10642 ft 317 kts 17°
2026-04-20 20:01 43.31192 131.69341 10674 ft 320 kts 21°
2026-04-20 20:01 43.32986 131.71252 10682 ft 334 kts 39°
2026-04-20 20:01 43.34517 131.73675 10678 ft 338 kts 44°
2026-04-20 20:02 43.35990 131.76190 10694 ft 334 kts 44°
2026-04-20 20:02 43.37456 131.78673 10688 ft 334 kts 44°
2026-04-20 20:02 43.38950 131.81130 11033 ft 341 kts 43°
2026-04-20 20:02 43.40467 131.83588 11988 ft 342 kts 42°
2026-04-20 20:03 43.42019 131.86070 12973 ft 342 kts 42°
2026-04-20 20:03 43.43582 131.88554 13816 ft 347 kts 42°
2026-04-20 20:03 43.45161 131.91055 14625 ft 352 kts 41°
2026-04-20 20:03 43.46765 131.93588 15382 ft 357 kts 42°
2026-04-20 20:04 43.48412 131.96191 16151 ft 361 kts 42°
2026-04-20 20:04 43.50058 131.98799 16898 ft 366 kts 42°
2026-04-20 20:04 43.51741 132.01465 17430 ft 370 kts 42°
2026-04-20 20:04 43.53421 132.04128 17658 ft 372 kts 42°
2026-04-20 20:05 43.55120 132.06828 17665 ft 372 kts 42°
2026-04-20 20:05 43.56807 132.09520 17641 ft 370 kts 42°
2026-04-20 20:05 43.58476 132.12174 17628 ft 371 kts 42°
2026-04-20 20:05 43.60199 132.14909 17905 ft 379 kts 42°
2026-04-20 20:06 43.61929 132.17667 18721 ft 379 kts 42°
2026-04-20 20:06 43.63642 132.20403 19473 ft 382 kts 42°
2026-04-20 20:06 43.65394 132.23201 20158 ft 386 kts 42°
2026-04-20 20:06 43.67146 132.25998 20739 ft 391 kts 42°
2026-04-20 20:07 43.68938 132.28860 21308 ft 397 kts 43°
2026-04-20 20:07 43.70761 132.31775 21856 ft 403 kts 43°
2026-04-20 20:07 43.72600 132.34721 22462 ft 408 kts 43°
2026-04-20 20:07 43.74452 132.37694 23039 ft 412 kts 43°
2026-04-20 20:08 43.76332 132.40710 23564 ft 417 kts 43°
2026-04-20 20:08 43.78222 132.43753 24087 ft 422 kts 43°
2026-04-20 20:08 43.80143 132.46843 24592 ft 427 kts 43°
2026-04-20 20:08 43.82095 132.49989 25067 ft 431 kts 43°
2026-04-20 20:09 43.84045 132.53128 25558 ft 435 kts 44°
2026-04-20 20:09 43.86021 132.56320 26029 ft 438 kts 44°
2026-04-20 20:09 43.87992 132.59514 26483 ft 441 kts 44°
2026-04-20 20:09 43.89990 132.62746 26922 ft 445 kts 44°
2026-04-20 20:10 43.92019 132.66031 27349 ft 448 kts 46°
2026-04-20 20:10 43.94036 132.69318 27751 ft 451 kts 46°
2026-04-20 20:10 43.96065 132.72636 28132 ft 453 kts 46°
2026-04-20 20:10 43.98106 132.75963 28478 ft 456 kts 46°
2026-04-20 20:11 44.00179 132.79344 28811 ft 458 kts 46°
2026-04-20 20:11 44.02240 132.82712 29141 ft 461 kts 46°
2026-04-20 20:11 44.04323 132.86112 29464 ft 463 kts 47°
2026-04-20 20:11 44.06403 132.89513 29784 ft 465 kts 47°
2026-04-20 20:12 44.08524 132.92986 30116 ft 467 kts 47°
2026-04-20 20:12 44.10602 132.96390 30390 ft 469 kts 47°
2026-04-20 20:12 44.12712 132.99832 30651 ft 470 kts 47°
2026-04-20 20:13 44.16954 133.06752 31216 ft 472 kts 47°
2026-04-20 20:13 44.19172 133.10069 31588 ft 469 kts 43°
2026-04-20 20:13 44.21553 133.13216 31922 ft 467 kts 39°
2026-04-20 20:13 44.24014 133.16072 32193 ft 466 kts 36°
2026-04-20 20:14 44.26642 133.18829 32474 ft 467 kts 34°
2026-04-20 20:14 44.29250 133.21500 32754 ft 467 kts 34°
2026-04-20 20:14 44.31856 133.24158 33019 ft 467 kts 34°
2026-04-20 20:14 44.34465 133.26834 33321 ft 468 kts 34°
2026-04-20 20:15 44.37096 133.29544 33625 ft 469 kts 34°
2026-04-20 20:15 44.39715 133.32248 33913 ft 470 kts 35°
2026-04-20 20:15 44.42321 133.34946 34229 ft 469 kts 34°
2026-04-20 20:15 44.44973 133.37700 34519 ft 470 kts 34°
2026-04-20 20:16 44.47586 133.40411 34770 ft 471 kts 35°
2026-04-20 20:16 44.50225 133.43156 34998 ft 472 kts 34°
2026-04-20 20:16 44.52830 133.45871 35219 ft 474 kts 34°
2026-04-20 20:16 44.55485 133.48636 35412 ft 476 kts 34°
2026-04-20 20:17 44.58136 133.51401 35597 ft 478 kts 34°
2026-04-20 20:17 44.60799 133.54182 35782 ft 479 kts 35°
2026-04-20 20:17 44.63483 133.56988 35952 ft 481 kts 34°
2026-04-20 20:17 44.66168 133.59799 36129 ft 482 kts 35°
2026-04-20 20:18 44.68856 133.62619 36281 ft 484 kts 34°
2026-04-20 20:18 44.71538 133.65436 36462 ft 484 kts 36°
2026-04-20 20:18 44.74232 133.68277 36573 ft 486 kts 36°
2026-04-20 20:18 44.76936 133.71141 36583 ft 487 kts 36°
2026-04-20 20:19 44.82311 133.76825 36587 ft 486 kts 36°
2026-04-20 20:19 44.87724 133.82553 36590 ft 486 kts 36°
2026-04-20 20:20 44.93124 133.88234 36589 ft 486 kts 34°
2026-04-20 20:20 44.98647 133.93718 36584 ft 486 kts 34°
2026-04-20 20:21 45.04168 133.99176 36582 ft 485 kts 34°
2026-04-20 20:21 45.09686 134.04669 36581 ft 486 kts 34°
2026-04-20 20:22 45.15186 134.10153 36577 ft 485 kts 34°
2026-04-20 20:22 45.20690 134.15657 36574 ft 484 kts 34°
2026-04-20 20:23 45.26143 134.21138 36577 ft 485 kts 34°
2026-04-20 20:23 45.31644 134.26686 36577 ft 484 kts 34°
2026-04-20 20:24 45.37142 134.32251 36575 ft 485 kts 34°
2026-04-20 20:24 45.42617 134.37802 36576 ft 485 kts 35°
2026-04-20 20:25 45.48121 134.43401 36578 ft 486 kts 35°
2026-04-20 20:25 45.53596 134.48984 36577 ft 485 kts 35°
2026-04-20 20:26 45.59064 134.54568 36575 ft 485 kts 35°
2026-04-20 20:26 45.64541 134.60184 36568 ft 485 kts 35°
2026-04-20 20:27 45.70019 134.65816 36564 ft 485 kts 36°
2026-04-20 20:27 45.75461 134.71449 36555 ft 484 kts 36°
2026-04-20 20:28 45.80902 134.77078 36551 ft 484 kts 36°
2026-04-20 20:28 45.86518 134.82344 36546 ft 483 kts 27°
2026-04-20 20:29 45.92702 134.86046 36545 ft 481 kts 15°
2026-04-20 20:29 45.99194 134.87932 36539 ft 478 kts
2026-04-20 20:30 46.05836 134.88788 36534 ft 478 kts
2026-04-20 20:30 46.12434 134.89589 36534 ft 478 kts
2026-04-20 20:31 46.19049 134.90439 36537 ft 479 kts
2026-04-20 20:31 46.25708 134.91321 36535 ft 479 kts
2026-04-20 20:32 46.32320 134.92206 36539 ft 480 kts
2026-04-20 20:32 46.38957 134.93091 36544 ft 480 kts
2026-04-20 20:33 46.45616 134.93895 36541 ft 480 kts
2026-04-20 20:33 46.52236 134.94701 36540 ft 479 kts
2026-04-20 20:34 46.58859 134.95522 36539 ft 480 kts
2026-04-20 20:34 46.65523 134.96358 36535 ft 480 kts
2026-04-20 20:35 46.72151 134.97189 36534 ft 480 kts
2026-04-20 20:35 46.78754 134.98022 36534 ft 480 kts
2026-04-20 20:36 46.85419 134.98866 36529 ft 479 kts
2026-04-20 20:36 46.92041 134.99704 36534 ft 480 kts
2026-04-20 20:37 46.98696 135.00549 36526 ft 480 kts
2026-04-20 20:37 47.05321 135.01395 36531 ft 479 kts
2026-04-20 20:38 47.11997 135.02249 36534 ft 481 kts
2026-04-20 20:38 47.18692 135.03104 36527 ft 482 kts
2026-04-20 20:39 47.25377 135.03960 36531 ft 483 kts
2026-04-20 20:39 47.32059 135.04820 36534 ft 482 kts
2026-04-20 20:40 47.38706 135.05679 36517 ft 482 kts
2026-04-20 20:40 47.45389 135.06543 36530 ft 482 kts
2026-04-20 20:41 47.52047 135.07407 36518 ft 482 kts
2026-04-20 20:41 47.58715 135.08275 36519 ft 482 kts
2026-04-20 20:42 47.65446 135.09149 36532 ft 494 kts
2026-04-20 20:42 47.72330 135.10051 36524 ft 500 kts
2026-04-20 20:43 47.79277 135.10963 36517 ft 501 kts
2026-04-20 20:43 47.86188 135.11873 36527 ft 501 kts
2026-04-20 20:44 47.93132 135.12784 36519 ft 502 kts
2026-04-20 20:44 48.00059 135.13701 36510 ft 501 kts
2026-04-20 20:45 48.06979 135.14622 36498 ft 502 kts
2026-04-20 20:45 48.13931 135.15544 36498 ft 502 kts
2026-04-20 20:46 48.20847 135.16466 36493 ft 502 kts
2026-04-20 20:46 48.27797 135.17397 36491 ft 502 kts
2026-04-20 20:47 48.34764 135.18333 36494 ft 502 kts
2026-04-20 20:47 48.41661 135.19264 36491 ft 491 kts
2026-04-20 20:48 48.45052 135.19374 36483 ft 479 kts 352°
2026-04-20 20:48 48.48240 135.18344 36488 ft 472 kts 336°
2026-04-20 20:48 48.51194 135.16161 36482 ft 464 kts 321°
2026-04-20 20:48 48.53608 135.13126 36489 ft 455 kts 307°
2026-04-20 20:49 48.55504 135.09312 36485 ft 446 kts 293°
2026-04-20 20:49 48.56737 135.05122 36490 ft 437 kts 281°
2026-04-20 20:49 48.57978 134.96307 36477 ft 433 kts 274°
2026-04-20 20:50 48.59069 134.87508 36477 ft 433 kts 275°
2026-04-20 20:50 48.60222 134.78552 36479 ft 433 kts 276°
2026-04-20 20:51 48.61382 134.69687 36484 ft 434 kts 276°
2026-04-20 20:51 48.62520 134.60985 36476 ft 435 kts 276°
2026-04-20 20:52 48.63688 134.52028 36476 ft 441 kts 276°
2026-04-20 20:52 48.64856 134.42964 36478 ft 453 kts 276°
2026-04-20 20:53 48.66059 134.33621 36480 ft 458 kts 276°
2026-04-20 20:53 48.67268 134.24185 36482 ft 456 kts 276°
2026-04-20 20:54 48.68460 134.14798 36482 ft 456 kts 276°
2026-04-20 20:54 48.69637 134.05467 36493 ft 456 kts 276°
2026-04-20 20:55 48.70816 133.96068 36496 ft 457 kts 276°
2026-04-20 20:55 48.71985 133.86667 36495 ft 457 kts 276°
2026-04-20 20:56 48.73151 133.77231 36500 ft 458 kts 276°
2026-04-20 20:56 48.74309 133.67789 36487 ft 458 kts 276°
2026-04-20 20:57 48.75457 133.58375 36485 ft 458 kts 276°
2026-04-20 20:57 48.76592 133.48988 36477 ft 457 kts 276°
2026-04-20 20:58 48.77730 133.39514 36473 ft 458 kts 276°
2026-04-20 20:58 48.78862 133.30035 36478 ft 458 kts 276°
2026-04-20 20:59 48.79975 133.20634 36474 ft 457 kts 276°
2026-04-20 20:59 48.81095 133.11119 36478 ft 457 kts 276°
2026-04-20 21:00 48.82191 133.01746 36476 ft 441 kts 276°
2026-04-20 21:00 48.82798 132.97299 36479 ft 427 kts 279°
2026-04-20 21:00 48.83544 132.93082 36487 ft 416 kts 282°
2026-04-20 21:01 48.85541 132.84843 36481 ft 419 kts 290°
2026-04-20 21:01 48.88039 132.76869 36480 ft 420 kts 292°
2026-04-20 21:02 48.90585 132.68919 36481 ft 419 kts 292°
2026-04-20 21:02 48.93103 132.61005 36478 ft 419 kts 292°
2026-04-20 21:03 48.95627 132.53020 36481 ft 419 kts 292°
2026-04-20 21:03 48.98127 132.45090 36480 ft 420 kts 292°
2026-04-20 21:04 49.00626 132.37134 36473 ft 409 kts 292°
2026-04-20 21:04 49.01837 132.33273 36478 ft 394 kts 291°
2026-04-20 21:04 49.02994 132.29575 36472 ft 384 kts 291°
2026-04-20 21:05 49.05271 132.22249 36468 ft 384 kts 291°
2026-04-20 21:05 49.07541 132.14934 36474 ft 383 kts 291°
2026-04-20 21:06 49.09815 132.07591 36445 ft 384 kts 291°
2026-04-20 21:06 49.12093 132.00293 36442 ft 384 kts 292°
2026-04-20 21:07 49.14375 131.92960 36428 ft 383 kts 292°
2026-04-20 21:07 49.16636 131.85628 36412 ft 383 kts 292°
2026-04-20 21:08 49.18892 131.78278 36429 ft 383 kts 292°
2026-04-20 21:08 49.21138 131.70937 36437 ft 384 kts 291°
2026-04-20 21:09 49.23393 131.63531 36433 ft 384 kts 291°
2026-04-20 21:09 49.25632 131.56161 36426 ft 384 kts 292°
2026-04-20 21:10 49.27840 131.48868 36418 ft 383 kts 292°
2026-04-20 21:10 49.30093 131.41406 36424 ft 383 kts 292°
2026-04-20 21:11 49.32308 131.34052 36429 ft 383 kts 291°
2026-04-20 21:11 49.34521 131.26653 36443 ft 382 kts 291°
2026-04-20 21:12 49.36724 131.19278 36442 ft 383 kts 291°
2026-04-20 21:12 49.38928 131.11887 36450 ft 384 kts 291°
2026-04-20 21:13 49.41146 131.04459 36455 ft 384 kts 291°
2026-04-20 21:13 49.43364 130.96995 36451 ft 384 kts 291°
2026-04-20 21:14 49.45571 130.89548 36449 ft 384 kts 291°
2026-04-20 21:14 49.47763 130.82138 36453 ft 383 kts 291°
2026-04-20 21:15 49.49947 130.74734 36458 ft 382 kts 291°
2026-04-20 21:15 49.52138 130.67285 36463 ft 382 kts 291°
2026-04-20 21:16 49.54308 130.59880 36468 ft 383 kts 291°
2026-04-20 21:16 49.56497 130.52391 36160 ft 383 kts 291°
2026-04-20 21:17 49.57571 130.48706 35953 ft 382 kts 291°
2026-04-20 21:17 49.58664 130.44955 35731 ft 382 kts 291°
2026-04-20 21:17 49.59762 130.41168 35521 ft 397 kts 292°
2026-04-20 21:17 49.60904 130.37222 35306 ft 413 kts 292°
2026-04-20 21:18 49.62080 130.33147 35086 ft 427 kts 291°
2026-04-20 21:18 49.63289 130.28958 34796 ft 433 kts 291°
2026-04-20 21:18 49.64513 130.24712 34422 ft 434 kts 291°
2026-04-20 21:18 49.65731 130.20483 33914 ft 435 kts 291°
2026-04-20 21:19 49.66945 130.16264 33314 ft 438 kts 291°
2026-04-20 21:19 49.68187 130.11943 32766 ft 441 kts 291°
2026-04-20 21:19 49.69432 130.07599 32108 ft 448 kts 291°
2026-04-20 21:20 49.71974 129.98708 30693 ft 460 kts 292°
2026-04-20 21:20 49.73263 129.94191 30212 ft 459 kts 292°
2026-04-20 21:20 49.74522 129.89769 29755 ft 455 kts 292°
2026-04-20 21:20 49.75785 129.85319 29293 ft 451 kts 292°
2026-04-20 21:21 49.77031 129.80902 28819 ft 447 kts 292°
2026-04-20 21:21 49.78243 129.76573 28341 ft 443 kts 292°
2026-04-20 21:21 49.79463 129.72211 27878 ft 440 kts 292°
2026-04-20 21:21 49.80669 129.67897 27393 ft 436 kts 293°
2026-04-20 21:22 49.81839 129.63702 26945 ft 432 kts 293°
2026-04-20 21:22 49.83038 129.59405 26485 ft 428 kts 293°
2026-04-20 21:22 49.84197 129.55240 25963 ft 422 kts 294°
2026-04-20 21:22 49.85345 129.51109 25137 ft 415 kts 294°
2026-04-20 21:23 49.86463 129.47078 24440 ft 408 kts 294°
2026-04-20 21:23 49.87569 129.43094 23996 ft 401 kts 294°
2026-04-20 21:23 49.88652 129.39182 23600 ft 395 kts 294°
2026-04-20 21:23 49.89727 129.35294 23242 ft 388 kts 294°
2026-04-20 21:24 49.90770 129.31506 22856 ft 383 kts 293°
2026-04-20 21:24 49.91811 129.27710 22400 ft 381 kts 293°
2026-04-20 21:24 49.92831 129.23988 21956 ft 379 kts 293°
2026-04-20 21:24 49.93866 129.20209 21510 ft 377 kts 293°
2026-04-20 21:25 49.94881 129.16502 21097 ft 374 kts 293°
2026-04-20 21:25 49.95876 129.12862 20674 ft 372 kts 293°
2026-04-20 21:25 49.96887 129.09161 20236 ft 370 kts 292°
2026-04-20 21:25 49.97884 129.05501 19817 ft 367 kts 292°
2026-04-20 21:26 49.98866 129.01895 19418 ft 364 kts 292°
2026-04-20 21:26 49.99839 128.98314 19012 ft 361 kts 292°
2026-04-20 21:26 50.00804 128.94754 18634 ft 357 kts 292°
2026-04-20 21:26 50.01758 128.91228 18266 ft 354 kts 292°
2026-04-20 21:27 50.02707 128.87715 17895 ft 350 kts 292°
2026-04-20 21:27 50.03647 128.84235 17526 ft 347 kts 292°
2026-04-20 21:27 50.04568 128.80820 17170 ft 344 kts 293°
2026-04-20 21:27 50.05486 128.77411 16814 ft 340 kts 293°
2026-04-20 21:28 50.06393 128.74042 16455 ft 338 kts 293°
2026-04-20 21:28 50.07287 128.70712 16100 ft 335 kts 293°
2026-04-20 21:28 50.08181 128.67381 15728 ft 333 kts 293°
2026-04-20 21:28 50.09066 128.64070 15368 ft 330 kts 293°
2026-04-20 21:29 50.09939 128.60805 15011 ft 327 kts 293°
2026-04-20 21:29 50.10807 128.57582 14672 ft 324 kts 294°
2026-04-20 21:29 50.11675 128.54376 14320 ft 321 kts 294°
2026-04-20 21:29 50.12611 128.50900 13927 ft 319 kts 293°
2026-04-20 21:30 50.13461 128.47728 13567 ft 317 kts 293°
2026-04-20 21:30 50.14310 128.44544 13257 ft 317 kts 293°
2026-04-20 21:30 50.15153 128.41368 13399 ft 321 kts 293°
2026-04-20 21:30 50.16007 128.38142 13458 ft 321 kts 293°
2026-04-20 21:31 50.16853 128.34944 13478 ft 320 kts 292°
2026-04-20 21:31 50.17693 128.31753 13103 ft 320 kts 292°
2026-04-20 21:31 50.18545 128.28507 12337 ft 327 kts 292°
2026-04-20 21:31 50.19388 128.25293 11996 ft 320 kts 292°
2026-04-20 21:32 50.20220 128.22115 11643 ft 314 kts 292°
2026-04-20 21:32 50.21041 128.18980 11385 ft 304 kts 292°
2026-04-20 21:32 50.21831 128.15967 11186 ft 294 kts 292°
2026-04-20 21:32 50.22631 128.13129 10987 ft 285 kts 301°
2026-04-20 21:33 50.23994 128.11053 10787 ft 273 kts 334°
2026-04-20 21:33 50.25806 128.10558 10624 ft 261 kts
2026-04-20 21:33 50.27432 128.11603 10415 ft 247 kts 37°
2026-04-20 21:33 50.28550 128.13533 10184 ft 237 kts 60°
2026-04-20 21:34 50.29059 128.15922 10019 ft 229 kts 84°
2026-04-20 21:34 50.28909 128.18361 10007 ft 229 kts 108°
2026-04-20 21:34 50.28278 128.20697 10006 ft 232 kts 114°
2026-04-20 21:34 50.27599 128.22954 10000 ft 232 kts 114°
2026-04-20 21:35 50.26921 128.25253 9998 ft 233 kts 113°
2026-04-20 21:35 50.26255 128.27570 9996 ft 233 kts 113°
2026-04-20 21:35 50.25592 128.29863 9993 ft 234 kts 118°
2026-04-20 21:35 50.24534 128.31764 9987 ft 233 kts 146°
2026-04-20 21:36 50.23019 128.32687 9990 ft 232 kts 174°
2026-04-20 21:36 50.21441 128.32457 9991 ft 231 kts 200°
2026-04-20 21:36 50.20083 128.31195 9990 ft 230 kts 225°
2026-04-20 21:36 50.19194 128.29140 9990 ft 228 kts 251°
2026-04-20 21:37 50.18959 128.26708 9993 ft 228 kts 276°
2026-04-20 21:37 50.19389 128.24329 10007 ft 229 kts 293°
2026-04-20 21:37 50.20052 128.22025 10009 ft 231 kts 295°
2026-04-20 21:37 50.20721 128.19745 10010 ft 231 kts 295°
2026-04-20 21:38 50.21376 128.17462 10010 ft 231 kts 294°
2026-04-20 21:38 50.22018 128.15172 10016 ft 235 kts 293°
2026-04-20 21:38 50.22647 128.12650 10024 ft 262 kts 291°
2026-04-20 21:38 50.23304 128.09903 10017 ft 278 kts 291°
2026-04-20 21:39 50.23980 128.07059 10014 ft 281 kts 291°
2026-04-20 21:39 50.24665 128.04190 9957 ft 278 kts 291°
2026-04-20 21:39 50.25338 128.01388 9556 ft 278 kts 291°
2026-04-20 21:39 50.26024 127.98537 9110 ft 278 kts 291°
2026-04-20 21:40 50.26695 127.95750 8712 ft 277 kts 291°
2026-04-20 21:40 50.27371 127.92937 8310 ft 275 kts 291°
2026-04-20 21:40 50.28040 127.90155 7914 ft 274 kts 291°
2026-04-20 21:40 50.28704 127.87389 7569 ft 271 kts 291°
2026-04-20 21:41 50.29359 127.84655 7519 ft 272 kts 291°
2026-04-20 21:41 50.30030 127.81856 7511 ft 272 kts 291°
2026-04-20 21:41 50.30690 127.79101 7510 ft 272 kts 292°
2026-04-20 21:41 50.31358 127.76308 7518 ft 273 kts 292°
2026-04-20 21:42 50.32020 127.73541 7530 ft 273 kts 292°
2026-04-20 21:42 50.32681 127.70767 7524 ft 273 kts 292°
2026-04-20 21:42 50.33332 127.68033 7526 ft 273 kts 292°
2026-04-20 21:42 50.34002 127.65222 7533 ft 273 kts 292°
2026-04-20 21:43 50.34656 127.62466 7519 ft 273 kts 292°
2026-04-20 21:43 50.35324 127.59656 7526 ft 272 kts 291°
2026-04-20 21:43 50.35975 127.56908 7304 ft 268 kts 291°
2026-04-20 21:43 50.36617 127.54188 6870 ft 269 kts 292°
2026-04-20 21:44 50.37263 127.51445 6548 ft 260 kts 292°
2026-04-20 21:44 50.37870 127.48869 6250 ft 245 kts 292°
2026-04-20 21:44 50.38436 127.46468 5887 ft 234 kts 292°
2026-04-20 21:44 50.39043 127.44112 5333 ft 230 kts 303°
2026-04-20 21:45 50.40144 127.42445 4758 ft 224 kts 336°
2026-04-20 21:45 50.41645 127.41773 4211 ft 220 kts 351°
2026-04-20 21:45 50.43129 127.41342 3634 ft 219 kts 351°
2026-04-20 21:45 50.44620 127.40900 3145 ft 215 kts 350°
2026-04-20 21:46 50.46095 127.40446 2993 ft 217 kts 350°
2026-04-20 21:46 50.47579 127.39976 2992 ft 218 kts 349°
2026-04-20 21:46 50.49073 127.39639 2972 ft 217 kts
2026-04-20 21:46 50.50468 127.40447 2967 ft 216 kts 39°
2026-04-20 21:47 50.51320 127.42405 3000 ft 221 kts 70°
2026-04-20 21:47 50.51722 127.44772 3542 ft 232 kts 76°
2026-04-20 21:47 50.52044 127.47206 4455 ft 228 kts 77°
2026-04-20 21:47 50.52355 127.49653 5494 ft 232 kts 78°
2026-04-20 21:48 50.52669 127.52111 6098 ft 233 kts 77°
2026-04-20 21:48 50.52992 127.54608 6452 ft 234 kts 77°
2026-04-20 21:48 50.53318 127.57111 6489 ft 234 kts 77°
2026-04-20 21:48 50.53643 127.59615 6514 ft 234 kts 79°
2026-04-20 21:49 50.53579 127.62151 6489 ft 235 kts 109°
2026-04-20 21:49 50.52683 127.64256 6498 ft 237 kts 138°
2026-04-20 21:49 50.51350 127.65807 6517 ft 240 kts 145°
2026-04-20 21:49 50.49950 127.67210 6514 ft 241 kts 147°
2026-04-20 21:50 50.48512 127.68610 6508 ft 242 kts 147°
2026-04-20 21:50 50.47094 127.69990 6521 ft 242 kts 147°
2026-04-20 21:50 50.45575 127.71107 6517 ft 243 kts 169°
2026-04-20 21:50 50.43891 127.71027 6538 ft 243 kts 192°
2026-04-20 21:51 50.42234 127.70370 6531 ft 245 kts 196°
2026-04-20 21:51 50.40625 127.69628 6504 ft 245 kts 197°
2026-04-20 21:51 50.39003 127.68864 6512 ft 244 kts 197°
2026-04-20 21:51 50.37373 127.68092 6518 ft 244 kts 197°
2026-04-20 21:52 50.35738 127.67315 6523 ft 244 kts 197°
2026-04-20 21:52 50.34106 127.66537 6549 ft 244 kts 197°
2026-04-20 21:52 50.32481 127.65761 6528 ft 244 kts 197°
2026-04-20 21:52 50.30824 127.65404 6502 ft 242 kts 171°
2026-04-20 21:53 50.29295 127.66353 6501 ft 238 kts 140°
2026-04-20 21:53 50.28324 127.68395 6488 ft 234 kts 107°
2026-04-20 21:53 50.28083 127.70852 6505 ft 232 kts 91°
2026-04-20 21:53 50.28080 127.73415 6512 ft 234 kts 88°
2026-04-20 21:54 50.28120 127.75957 6523 ft 234 kts 87°
2026-04-20 21:54 50.28165 127.78475 6502 ft 234 kts 87°
2026-04-20 21:54 50.28212 127.81046 6508 ft 235 kts 87°
2026-04-20 21:54 50.28257 127.83587 6515 ft 235 kts 87°
2026-04-20 21:55 50.28302 127.86131 6507 ft 235 kts 87°
2026-04-20 21:55 50.28392 127.88645 6499 ft 234 kts 78°
2026-04-20 21:55 50.29082 127.90891 6494 ft 230 kts 45°
2026-04-20 21:55 50.30430 127.92193 6504 ft 229 kts 16°
2026-04-20 21:56 50.31994 127.92699 6509 ft 231 kts
2026-04-20 21:56 50.33581 127.93033 6504 ft 231 kts
2026-04-20 21:56 50.35165 127.93328 6506 ft 231 kts
2026-04-20 21:56 50.36783 127.93622 6510 ft 236 kts
2026-04-20 21:57 50.38505 127.93938 6515 ft 258 kts
2026-04-20 21:57 50.40309 127.94272 6515 ft 262 kts
2026-04-20 21:57 50.42113 127.94607 6517 ft 262 kts
2026-04-20 21:57 50.43944 127.94947 6519 ft 263 kts
2026-04-20 21:58 50.45761 127.95286 6520 ft 263 kts
2026-04-20 21:58 50.47570 127.95622 6514 ft 263 kts
2026-04-20 21:58 50.49387 127.95646 6504 ft 264 kts 348°
2026-04-20 21:58 50.51036 127.94406 6512 ft 265 kts 320°
2026-04-20 21:59 50.52131 127.92065 6520 ft 268 kts 295°
2026-04-20 21:59 50.52743 127.89370 6521 ft 259 kts 288°
2026-04-20 21:59 50.53240 127.86703 6507 ft 247 kts 287°
2026-04-20 21:59 50.53691 127.84151 6507 ft 238 kts 287°
2026-04-20 22:00 50.54128 127.81657 6510 ft 238 kts 287°
2026-04-20 22:00 50.54561 127.79176 6456 ft 234 kts 287°
2026-04-20 22:00 50.54992 127.76697 6134 ft 234 kts 287°
2026-04-20 22:00 50.55415 127.74256 5793 ft 235 kts 287°
2026-04-20 22:01 50.55841 127.71803 5542 ft 231 kts 287°
2026-04-20 22:01 50.56267 127.69347 5525 ft 233 kts 287°
2026-04-20 22:01 50.56690 127.66909 5514 ft 226 kts 287°
2026-04-20 22:01 50.57085 127.64608 5506 ft 212 kts 287°
2026-04-20 22:02 50.57469 127.62371 5506 ft 213 kts 287°
2026-04-20 22:02 50.57856 127.60118 5514 ft 213 kts 287°
2026-04-20 22:02 50.58243 127.57864 5511 ft 213 kts 287°
2026-04-20 22:02 50.58628 127.55615 5506 ft 213 kts 287°
2026-04-20 22:03 50.59011 127.53368 5504 ft 212 kts 287°
2026-04-20 22:03 50.59267 127.51115 5300 ft 212 kts 268°
2026-04-20 22:03 50.58769 127.48960 5002 ft 215 kts 231°
2026-04-20 22:03 50.57568 127.47646 4719 ft 214 kts 195°
2026-04-20 22:04 50.56101 127.47663 4416 ft 212 kts 158°
2026-04-20 22:04 50.54880 127.48908 4132 ft 209 kts 139°
2026-04-20 22:04 50.53661 127.50086 3747 ft 213 kts 166°
2026-04-20 22:04 50.52194 127.50026 3447 ft 210 kts 200°
2026-04-20 22:05 50.50847 127.49187 3085 ft 211 kts 195°
2026-04-20 22:05 50.49407 127.49215 2693 ft 210 kts 158°
2026-04-20 22:05 50.48280 127.50566 2422 ft 203 kts 120°
2026-04-20 22:05 50.47913 127.52618 2134 ft 196 kts 82°
2026-04-20 22:06 50.48428 127.54497 2004 ft 198 kts 43°
2026-04-20 22:06 50.49694 127.55576 1995 ft 217 kts 10°
2026-04-20 22:06 50.51217 127.55489 1995 ft 222 kts 351°
2026-04-20 22:06 50.52733 127.54992 1981 ft 224 kts 348°
2026-04-20 22:07 50.54271 127.54417 1975 ft 224 kts 347°
2026-04-20 22:07 50.55791 127.53839 1975 ft 225 kts 347°
2026-04-20 22:07 50.57315 127.53258 1974 ft 226 kts 347°
2026-04-20 22:07 50.58831 127.52660 1971 ft 226 kts 343°
2026-04-20 22:08 50.60159 127.51358 1968 ft 227 kts 312°
2026-04-20 22:08 50.60823 127.49133 1972 ft 230 kts 279°
2026-04-20 22:08 50.60716 127.46629 1980 ft 233 kts 261°
2026-04-20 22:08 50.60358 127.44154 1972 ft 227 kts 258°
2026-04-20 22:09 50.59965 127.41759 1978 ft 225 kts 257°
2026-04-20 22:09 50.59465 127.39463 1968 ft 226 kts 240°
2026-04-20 22:09 50.58379 127.37644 1971 ft 227 kts 221°
2026-04-20 22:09 50.57018 127.36475 1958 ft 226 kts 191°
2026-04-20 22:10 50.55515 127.36611 1959 ft 211 kts 163°
2026-04-20 22:10 50.54187 127.37315 1954 ft 195 kts 158°
2026-04-20 22:10 50.52938 127.38017 2028 ft 187 kts 161°
2026-04-20 22:10 50.51749 127.38569 2013 ft 167 kts 164°
2026-04-20 22:11 50.50694 127.38971 1945 ft 150 kts 167°
2026-04-20 22:11 50.49689 127.39298 1745 ft 144 kts 168°
2026-04-20 22:11 50.48711 127.39491 1558 ft 143 kts 175°
2026-04-20 22:11 50.47723 127.39609 1330 ft 141 kts 174°
2026-04-20 22:12 50.46757 127.39856 1124 ft 141 kts 167°
2026-04-20 22:12 50.45792 127.40197 917 ft 140 kts 168°
2026-04-20 22:12 50.44846 127.40499 751 ft 139 kts 168°
2026-04-20 22:12 50.43898 127.40806 585 ft 138 kts 168°
2026-04-20 22:13 50.43013 127.41096 583 ft 109 kts 169°
2026-04-20 22:13 50.42441 127.41286 606 ft 60 kts 168°
2026-04-20 22:13 50.42108 127.41392 614 ft 36 kts 168°
2026-04-20 22:13 50.41907 127.41456 620 ft 15 kts 168°
2026-04-20 22:14 50.41866 127.41459 621 ft 4 kts 211°
2026-04-20 22:14 50.41845 127.41399 620 ft 8 kts 255°
2026-04-20 22:14 50.41830 127.41290 618 ft 5 kts 259°
2026-04-20 22:14 50.41830 127.41286 618 ft 0 kts 259°
2026-04-20 22:15 50.41829 127.41286 618 ft 0 kts 259°
2026-04-20 22:16 50.41826 127.41252 617 ft 6 kts 260°
2026-04-20 22:16 50.41816 127.41138 614 ft 10 kts 281°
2026-04-20 22:16 50.41877 127.41073 612 ft 9 kts 348°
2026-04-20 22:16 50.41910 127.41038 610 ft 6 kts 269°
2026-04-20 22:17 50.41908 127.41014 609 ft 0 kts 257°